AirNav   ProFlight Series 2 Aviation Headset
 
 1029 users online  

PN60 Motola's Paving Heliport
Lehighton, Pennsylvania, USA

GOING TO LEHIGHTON?


FAA INFORMATION EFFECTIVE 18 JUNE 2020

Location

FAA Identifier: PN60
Lat/Long: 40-50-15.9000N 075-41-49.9800W
40-50.265000N 075-41.833000W
40.8377500,-75.6972167
(estimated)
Elevation: 433 ft. / 132 m (estimated)
From city: 5 miles W of LEHIGHTON, PA
Time zone: UTC -4 (UTC -5 during Standard Time)
Zip code: 18235

Heliport Operations

Heliport use: Private use. Permission required prior to landing
Activation date: 03/2003
Control tower: no
ARTCC: NEW YORK CENTER
FSS: WILLIAMSPORT FLIGHT SERVICE STATION
Attendance: UNATNDD
Wind indicator: yes
Segmented circle: no

Heliport Communications

WX AWOS-3PT at 22N (3 nm SW): 119.350 (570-386-3423)
WX ASOS at ABE (16 nm SE): 126.975 (610-266-3579)
WX AWOS-3 at HZL (16 nm NW): 119.975 (570-459-4901)
WX AWOS-3 at XLL (19 nm SE): 127.875 (610-231-3111)

Nearby radio navigation aids

VOR radial/distance  VOR name  Freq  Var
FJCr311/12.9ALLENTOWN VORTAC117.5010W
ETXr007/15.4EAST TEXAS VOR/DME110.2009W
LVZr191/26.1WILKES-BARRE VORTAC111.6010W
PTWr359/37.5POTTSTOWN VORTAC116.5009W
STWr267/38.7STILLWATER VOR/DME109.6011W
BWZr284/39.8BROADWAY VOR/DME114.2011W

Heliport Services

Runway Information

Helipad H1

Dimensions: 65 x 65 ft. / 20 x 20 m
Surface: asphalt
Traffic pattern: leftleft

Heliport Ownership and Management from official FAA records

Ownership: Privately-owned
Owner: JOHN MOTOLA
252 FAIRYLAND RD
LEHIGHTON, PA 18235-9022
Phone 610-377-1672
OR 484-894-1672.
Manager: JOHN MOTOLA
252 FAIRYLAND RD
LEHIGHTON, PA 18235-9022
Phone 610-377-1672
OR 484-894-1672.

Additional Remarks

FOR CD CTC ALLENTOWN APCH AT 800-728-6322.

Instrument Procedures

There are no published instrument procedures at PN60.

Some nearby airports with instrument procedures:

22N - Jake Arner Memorial Airport (3 nm SW)
KABE - Lehigh Valley International Airport (16 nm SE)
KHZL - Hazleton Regional Airport (16 nm NW)
KXLL - Allentown Queen City Municipal Airport (19 nm SE)
N43 - Braden Airpark (21 nm E)
 
Loc | Ops | Rwys | IFR | FBO | Links
Com | Nav | Svcs | Stats | Notes
Area around PN60 (Motola's Paving Heliport)
 
Road maps at: MapQuest Bing Google
 
Aerial photo
No photo
 
Sectional chart

 
Airport distance calculator
Flying to Motola's Paving Heliport? Find the distance to fly.

From to PN60

Sunrise and sunset
Times for 12-Jul-2020
 Local
(UTC-4)
 Zulu
(UTC)
Morning civil twilight05:1109:11
Sunrise05:4309:43
Sunset20:3300:33
Evening civil twilight21:0601:06

Current date and time
Zulu (UTC)  12-Jul-2020 19:06:33
Local (UTC-4)  12-Jul-2020 15:06:33
 
METAR
K22N 
3nm SW 
121844Z AUTO 00000KT 10SM BKN100 27/18 A2976 RMK AO2
KABE 
16nm SE 
121851Z 23011G18KT 10SM CLR 30/17 A2974 RMK AO2 SLP068 T03000172
KHZL 
16nm NW 
121857Z AUTO 20004KT 10SM SCT044 BKN100 27/16 A2983 RMK AO2
KXLL 
19nm SE 
121855Z AUTO 25006KT 10SM SCT050 SCT070 30/18 A2976 RMK AO2
TAF
KABE 
16nm SE 
121726Z 1218/1318 25008KT P6SM SCT050 BKN120 FM122000 24008KT P6SM VCSH BKN045 FM122200 24005KT P6SM -SHRA VCTS BKN040CB FM130100 VRB03KT P6SM -SHRA BKN045 FM130700 VRB03KT P6SM BKN060 FM131400 29007KT P6SM BKN200
NOTAMs
Click for the latest NOTAMs
NOTAMs are issued by the DoD/FAA and will open in a separate window not controlled by AirNav.

 

 
 

Would you like to see your business listed on this page?

 If your business provides an interesting product or service to pilots, flight crews, aircraft, or users of the Motola's Paving Heliport, you should consider listing it here.  To start the listing process, click on the button below
 
Add a business
 

Other Pages about Motola's Paving Heliport

Update a link
 
Copyright © AirNav, LLC. All rights reserved. Privacy Policy  Contact